This demonstration page uses our WeatherBlox Daily Observations layout. Learn more.

40.92945, -100.16068

Hourly Observations for March 14, 2018

Temp ( °F °C ) Dew Point ( °F °C ) Humidity (%) Winds ( mph kmh ) Pressure ( in mb ) Visibility ( mi km ) Precip ( " mm )
12:15 am 00:15 Clear 32 -0.2 17 -8.2 55 55 S 7 11 30.33 1027 10 16.0934 0 0
12:35 am 00:35 Clear 36 2.1 15 -9.2 43 43 S 5 7 30.33 1027 10 16.0934 0 0
12:55 am 00:55 Clear 37 3 15 -9.6 39 39 SSE 5 7 30.3 1026 10 16.0934 0 0
1:15 am 01:15 Clear 38 3.2 15 -9.7 39 39 SSE 6 9 30.3 1026 10 16.0934 0 0
1:35 am 01:35 Clear 36 2.4 16 -9 43 43 Calm 30.33 1027 10 16.0934 0 0
1:55 am 01:55 Clear 37 2.5 16 -8.7 44 44 SW 5 7 30.27 1025 10 16.0934 0 0
2:15 am 02:15 Clear 37 2.6 16 -9 42 42 SSW 3 6 30.27 1025 10 16.0934 0 0
2:35 am 02:35 Clear 38 3.1 15 -9.3 40 40 Calm 30.27 1025 10 16.0934 0 0
2:55 am 02:55 Clear 37 2.6 16 -9.1 42 42 SW 3 6 30.27 1025 10 16.0934 0 0
3:15 am 03:15 Clear 36 2.1 15 -9.2 43 43 Calm 30.3 1026 10 16.0934 0 0
3:35 am 03:35 Clear 36 2.2 16 -9 44 44 SW 9 15 30.3 1026 10 16.0934 0 0
3:55 am 03:55 Clear 37 2.5 15 -9.4 41 41 SW 12 19 30.24 1024 10 16.0934 0 0
4:15 am 04:15 Clear 36 2.4 15 -9.4 42 42 SW 12 19 30.24 1024 10 16.0934 0 0
4:35 am 04:35 Clear 37 2.6 15 -9.4 41 41 SW 14 22 30.21 1023 10 16.0934 0 0
4:55 am 04:55 Clear 37 2.5 15 -9.3 42 42 SW 14 22 30.21 1023 10 16.0934 0 0
5:15 am 05:15 Clear 35 1.8 16 -9.1 45 45 SW 12 19 30.24 1024 10 16.0934 0 0
5:35 am 05:35 Clear 35 1.7 16 -9 45 45 SW 12 19 30.24 1024 10 16.0934 0 0
5:55 am 05:55 Clear 35 1.4 16 -9 46 46 WSW 9 15 30.24 1024 10 16.0934 0 0
6:15 am 06:15 Clear 34 1.3 16 -9 47 47 WSW 8 13 30.21 1023 10 16.0934 0 0
6:35 am 06:35 Clear 33 0.5 16 -9 49 49 SW 6 9 30.21 1023 10 16.0934 0 0
6:55 am 06:55 Clear 33 0.5 16 -9 49 49 SW 6 9 30.21 1023 10 16.0934 0 0
7:15 am 07:15 Clear 32 0 16 -8.8 52 52 SW 8 13 30.21 1023 10 16.0934 0 0
7:35 am 07:35 Clear 32 0 16 -9 51 51 SW 7 11 30.21 1023 10 16.0934 0 0
7:55 am 07:55 Sunny 32 0.1 16 -9 51 51 WSW 6 9 30.21 1023 10 16.0934 0 0
8:15 am 08:15 Sunny 33 0.7 16 -9 49 49 WSW 5 7 30.21 1023 10 16.0934 0 0
8:35 am 08:35 Sunny 34 1 17 -8.3 50 50 Calm 30.18 1022 10 16.0934 0 0
8:55 am 08:55 Sunny 36 2.4 17 -8.2 46 46 Calm 30.15 1021 10 16.0934 0 0
9:15 am 09:15 Sunny 39 3.9 18 -8 42 42 W 5 7 30.15 1021 10 16.0934 0 0
9:35 am 09:35 Sunny 41 5.1 19 -7.2 41 41 W 6 9 30.15 1021 10 16.0934 0 0
9:55 am 09:55 Sunny 43 6.1 20 -6.5 40 40 W 5 7 30.12 1020 10 16.0934 0 0
10:15 am 10:15 Sunny 45 7.2 21 -6 39 39 Calm 30.12 1020 10 16.0934 0 0
10:35 am 10:35 Sunny 49 9.5 23 -4.8 36 36 SW 7 11 30.09 1019 10 16.0934 0 0
10:55 am 10:55 Sunny 51 10.8 23 -4.8 33 33 SW 15 24 30.03 1017 10 16.0934 0 0
11:15 am 11:15 Sunny 53 11.5 24 -4.7 32 32 WSW 12 19 30.03 1017 10 16.0934 0 0
11:35 am 11:35 Sunny 52 11.3 24 -4.6 33 33 SW 12 19 30.03 1017 10 16.0934 0 0
11:55 am 11:55 Sunny 53 11.5 24 -4.6 32 32 SW 10 17 30.03 1017 10 16.0934 0 0
12:15 pm 12:15 Sunny 55 12.5 24 -4.4 31 31 SSW 10 17 30.03 1017 10 16.0934 0 0
12:35 pm 12:35 Sunny 55 12.6 24 -4.4 31 31 SW 7 11 30.03 1017 10 16.0934 0 0
12:55 pm 12:55 Sunny 56 13.3 24 -4.2 30 30 SW 7 11 29.97 1015 10 16.0934 0 0
1:15 pm 13:15 Sunny 57 14 24 -4.2 28 28 SSW 10 17 29.97 1015 10 16.0934 0 0
1:35 pm 13:35 Sunny 58 14.6 25 -4 28 28 SSW 6 9 29.97 1015 10 16.0934 0 0
1:55 pm 13:55 Sunny 59 15.2 25 -3.9 27 27 SSW 9 15 29.94 1014 10 16.0934 0 0
2:15 pm 14:15 Sunny 61 15.9 25 -3.7 26 26 SSW 9 15 29.94 1014 10 16.0934 0 0
2:35 pm 14:35 Sunny 62 16.8 26 -3.6 25 25 S 10 17 29.88 1012 10 16.0934 0 0
2:55 pm 14:55 Sunny 64 17.6 26 -3.2 24 24 SW 10 17 29.88 1012 10 16.0934 0 0
3:15 pm 15:15 Sunny 65 18.1 26 -3.3 23 23 S 6 9 29.85 1011 10 16.0934 0 0
3:35 pm 15:35 Sunny 66 19.1 26 -3.4 22 22 S 8 13 29.83 1010 10 16.0934 0 0
3:55 pm 15:55 Sunny 67 19.7 26 -3.3 21 21 S 10 17 29.83 1010 10 16.0934 0 0
4:15 pm 16:15 Sunny 68 20 26 -3.5 20 20 SSW 12 19 29.8 1009 10 16.0934 0 0
4:35 pm 16:35 Sunny 69 20.5 26 -3.1 20 20 SSW 12 19 29.8 1009 10 16.0934 0 0
4:55 pm 16:55 Sunny 69 20.8 26 -3.1 20 20 SSW 7 11 29.8 1009 10 16.0934 0 0
5:15 pm 17:15 Sunny 70 20.9 27 -2.9 20 20 S 12 19 29.77 1008 10 16.0934 0 0
5:35 pm 17:35 Sunny 70 21 26 -3.2 19 19 S 9 15 29.77 1008 10 16.0934 0 0
5:55 pm 17:55 Sunny 69 20.8 26 -3.4 19 19 S 12 19 29.77 1008 10 16.0934 0 0
6:15 pm 18:15 Sunny 69 20.7 26 -3.3 20 20 S 8 13 29.77 1008 10 16.0934 0 0
6:35 pm 18:35 Sunny 68 20.1 26 -3.2 21 21 S 8 13 29.74 1007 10 16.0934 0 0
6:55 pm 18:55 Sunny 65 18.2 27 -2.8 24 24 S 8 13 29.74 1007 10 16.0934 0 0
7:15 pm 19:15 Sunny 60 15.6 28 -2.5 29 29 S 8 13 29.8 1009 10 16.0934 0 0
7:35 pm 19:35 Sunny 57 13.9 27 -2.6 32 32 S 8 13 29.83 1010 10 16.0934 0 0
7:55 pm 19:55 Clear 56 13.1 27 -3 33 33 SSE 7 11 29.8 1009 10 16.0934 0 0
8:15 pm 20:15 Clear 58 14.2 26 -3.3 30 30 SSE 5 7 29.8 1009 10 16.0934 0 0
8:35 pm 20:35 Clear 56 13.4 26 -3.3 31 31 SSE 3 6 29.8 1009 10 16.0934 0 0
8:55 pm 20:55 Clear 56 13.3 26 -3.3 32 32 SE 6 9 29.8 1009 10 16.0934 0 0
9:15 pm 21:15 Clear 55 13 26 -3.3 32 32 SE 5 7 29.8 1009 10 16.0934 0 0
9:35 pm 21:35 Clear 46 7.9 27 -2.6 48 48 NE 7 11 29.85 1011 10 16.0934 0 0
9:55 pm 21:55 Clear 43 6.1 28 -2.5 54 54 NE 6 9 29.85 1011 7 11.26538 0 0
10:15 pm 22:15 Clear 42 5.7 27 -2.7 55 55 ENE 6 9 29.85 1011 10 16.0934 0 0
10:35 pm 22:35 Clear 43 6.3 27 -2.6 53 53 NE 5 7 29.85 1011 10 16.0934 0 0
10:55 pm 22:55 Clear 41 4.9 26 -3.1 57 57 ENE 7 11 29.88 1012 10 16.0934 0 0
11:15 pm 23:15 Clear 43 6.2 27 -2.9 52 52 E 7 11 29.85 1011 10 16.0934 0 0
11:35 pm 23:35 Clear 43 6.2 27 -3 52 52 E 6 9 29.85 1011 10 16.0934 0 0
11:55 pm 23:55 Clear 44 6.5 26 -3.1 51 51 ESE 5 7 29.83 1010 10 16.0934 0 0

Powered by AerisWeather